This demonstration page uses our WeatherBlox Daily Observations layout. Learn more.

Left ArrowRight Arrow

Hourly Observations for September 3, 2021

Temp ( °F °C ) Dew Point ( °F °C ) Humidity (%) Winds ( mph kmh ) Pressure ( in mb ) Visibility ( mi km ) Precip ( " mm )
12:53 am 00:53 Mostly Clear 80 26.7 68 20 67 67 SE 7 11 29.82 1010 10 16 0.00 0.00
1:53 am 01:53 Clear 79 26.1 69 20.6 72 72 SE 6 9 29.81 1009 10 16 0.00 0.00
2:53 am 02:53 Mostly Clear 79 26.1 67 19.4 67 67 SSE 7 11 29.80 1009 10 16 0.00 0.00
3:53 am 03:53 Clear 78 25.6 67 19.4 69 69 SSE 7 11 29.79 1009 10 16 0.00 0.00
4:53 am 04:53 Partly Cloudy 78 25.6 65 18.3 64 64 SSE 9 15 29.79 1009 10 16 0.00 0.00
5:53 am 05:53 Clear 77 25 64 17.8 64 64 SE 12 19 29.79 1009 10 16 0.00 0.00
6:53 am 06:53 Clear 76 24.4 64 17.8 67 67 SE 12 19 29.80 1009 10 16 0.00 0.00
7:53 am 07:53 Sunny 75 23.9 65 18.3 71 71 SE 10 17 29.83 1010 10 16 0.00 0.00
8:53 am 08:53 Partly Cloudy 77 25 67 19.4 71 71 SSE 15 24 29.85 1011 10 16 0.00 0.00
9:53 am 09:53 Sunny 80 26.7 69 20.6 69 69 SSE 16 26 29.85 1011 10 16 0.00 0.00
10:53 am 10:53 Sunny 84 28.9 68 20 59 59 SE 12 19 29.85 1011 10 16 0.00 0.00
11:53 am 11:53 Sunny 87 30.6 68 20 53 53 SSE 8 13 29.85 1011 10 16 0.00 0.00
12:53 pm 12:53 Sunny 89 31.7 67 19.4 48 48 VRB 5 7 29.83 1010 10 16 0.00 0.00
1:53 pm 13:53 Mostly Sunny 93 33.9 65 18.3 40 40 VRB 3 6 29.80 1009 10 16 0.00 0.00
2:53 pm 14:53 Mostly Cloudy 92 33.3 65 18.3 41 41 SSW 6 9 29.78 1009 10 16 0.00 0.00
3:53 pm 15:53 Mostly Cloudy 94 34.4 64 17.8 37 37 SSW 9 15 29.75 1008 10 16 0.00 0.00
4:53 pm 16:53 Mostly Sunny 96 35.6 62 16.7 32 32 SSW 9 15 29.72 1007 10 16 0.00 0.00
5:53 pm 17:53 Partly Cloudy 97 36.1 61 16.1 30 30 S 10 17 29.71 1006 10 16 0.00 0.00
6:53 pm 18:53 Sunny 94 34.4 63 17.2 36 36 SSW 15 24 29.72 1007 10 16 0.00 0.00
7:12 pm 19:12 Sunny with Nearby Thunderstorms 92 33.3 63 17.2 38 38 SSW 16 26 29.64 1004 10 16 0.00 0.00
7:29 pm 19:29 Sunny 91 32.8 63 17.2 39 39 S 16 26 29.65 1004 10 16 0.00 0.00
7:53 pm 19:53 Mostly Sunny 91 32.8 61 16.1 37 37 S 10 17 29.74 1007 10 16 0.00 0.00
8:53 pm 20:53 Partly Cloudy 87 30.6 63 17.2 45 45 S 5 7 29.77 1008 10 16 0.00 0.00
9:27 pm 21:27 Mostly Cloudy 81 27.2 65 18.3 58 58 N 14 22 29.76 1008 10 16 0.00 0.00
9:53 pm 21:53 Cloudy with Thunderstorms 81 27.2 66 18.9 61 61 NE 14 22 29.82 1010 10 16 0.00 0.00
10:07 pm 22:07 Cloudy with Rain 81 27.2 65 18.3 58 58 N 9 15 29.78 1008 3 5 0.07 1.78
10:15 pm 22:15 Cloudy with Thunderstorms 77 25 68 20 74 74 NNE 10 17 29.81 1010 10 16 0.07 1.78
10:53 pm 22:53 Cloudy with Thunderstorms 80 26.7 66 18.9 62 62 NNE 9 15 29.83 1010 10 16 0.07 1.78
11:00 pm 23:00 Mostly Cloudy 81 27.2 65 18.3 58 58 NNE 9 15 29.80 1009 10 16 0.00 0.00
11:53 pm 23:53 Mostly Clear 77 25 68 20 74 74 E 7 11 29.84 1010 10 16 0.00 0.00

Powered by AerisWeather